Location: Zagreb
(45.8000°N, 16.0000°E)
Time: 20:20:50
(UTC+01:00)

YUBILEINY - Pass Details

Date: 31 October 2020
Orbit: 1478 x 1509 km, 82.5° (Epoch: 01 December)

Event Time Altitude Azimuth Distance (km) Brightness Sun altitude
Rises 21:06:44 0° 351° (N) 4,612 ? -45.2°
Reaches altitude 10° 21:09:38 10° 353° (N) 3,627 ? -45.6°
Enters shadow 21:13:13 28° 358° (N) 2,481 ? -46.1°
